N1ULC Weather Reports


time (UTC)temp
C
wind
direction
speed
KPH
gust
KPH
rain 1hr
cm
rain 24hr
cm
rain mn
cm
humidity
%
barometer
mb
20260906210830 30 57 0.0 0.0 0.00 0.03 0.03 53 1010.4
20260906210330 30 71 0.0 0.0 0.00 0.03 0.03 51 1010.4
20260906205826 31 88 0.0 0.0 0.00 0.03 0.03 51 1010.4
20260906205343 31 61 0.0 0.0 0.00 0.03 0.03 48 1010.4
20260906204822 31 53 0.0 0.0 0.00 0.03 0.03 49 1010.4
20260906204344 31 57 0.0 0.0 0.00 0.03 0.03 43 1010.4
20260906203833 31 106 0.0 0.0 0.00 0.03 0.03 44 1010.6
20260906203329 30 102 0.0 0.0 0.00 0.03 0.03 49 1011.5
20260906202827 30 58 0.0 0.0 0.00 0.03 0.03 57 1011.5
20260906202325 29 76 0.0 0.0 0.00 0.03 0.03 57 1012.1
20260906201843 29 52 0.0 0.0 0.00 0.03 0.03 59 1012.1
20260906201319 28 71 0.0 0.0 0.00 0.03 0.03 59 1012.1
20260906200835 28 61 0.0 0.0 0.00 0.03 0.03 58 1012.5
20260906200353 28 65 0.0 0.0 0.00 0.03 0.03 59 1012.5
20260906195830 29 59 0.0 0.0 0.00 0.03 0.03 59 1012.5
20260906195324 28 106 0.0 0.0 0.00 0.03 0.03 60 1012.9
20260906194824 28 73 0.0 0.0 0.00 0.03 0.03 60 1012.9
20260906194322 28 71 0.0 0.0 0.00 0.03 0.03 61 1012.9
20260906193840 28 113 0.0 0.0 0.00 0.03 0.03 65 1012.9
20260906193334 27 70 0.0 0.0 0.00 0.03 0.03 68 1013.4
20260906192833 27 65 0.0 0.0 0.00 0.03 0.03 71 1013.4
20260906192329 26 66 0.0 0.0 0.00 0.03 0.03 71 1013.5
20260906191846 27 53 0.0 0.0 0.00 0.03 0.03 67 1013.5
20260906191343 27 73 0.0 0.0 0.00 0.03 0.03 65 1013.5
20260906190835 28 55 0.0 24.1 0.00 0.03 0.03 62 1012.8
20260906190353 28 40 0.0 33.8 0.00 0.03 0.03 66 1012.8
20260906185829 28 38 24.1 33.8 0.00 0.03 0.03 67 1012.8
20260906185327 27 31 22.5 32.2 0.00 0.03 0.03 68 1011.8
20260906184823 27 57 20.9 35.4 0.00 0.03 0.03 69 1011.8
20260906184322 27 27 24.1 35.4 0.00 0.03 0.03 68 1011.8
20260906183844 27 28 0.0 35.4 0.00 0.03 0.03 70 1012.6
20260906183322 26 15 0.0 35.4 0.00 0.03 0.03 70 1012.6
20260906182839 26 34 25.7 37.0 0.00 0.03 0.03 72 1012.6
20260906182336 26 26 22.5 37.0 0.00 0.03 0.03 72 1013.0
20260906181833 25 24 25.7 32.2 0.00 0.03 0.03 72 1013.0
20260906181331 25 22 0.0 0.0 0.00 0.03 0.03 72 1013.0
20260906180830 26 14 0.0 0.0 0.00 0.03 0.03 71 1013.4
20260906180347 26 5 0.0 0.0 0.00 0.03 0.03 71 1013.4
20260906175824 26 32 0.0 0.0 0.00 0.03 0.03 73 1013.4
20260906175320 26 34 0.0 0.0 0.00 0.03 0.03 72 1013.8
20260906174820 26 21 0.0 0.0 0.00 0.03 0.03 72 1013.8
20260906174357 26 43 0.0 0.0 0.00 0.03 0.03 74 1013.8
20260906173832 25 38 0.0 0.0 0.00 0.03 0.03 77 1013.4
20260906173332 25 5 0.0 0.0 0.00 0.03 0.03 76 1013.4
20260906172830 24 360 0.0 19.3 0.00 0.03 0.03 78 1013.4
20260906172326 23 341 0.0 22.5 0.03 0.03 0.03 80 1013.7
20260906171825 23 10 11.3 24.1 0.03 0.03 0.03 81 1013.7
20260906171323 23 5 20.9 25.7 0.03 0.03 0.03 81 1013.7
20260906170823 23 346 17.7 25.7 0.03 0.03 0.03 83 1013.9
20260906170356 23 360 17.7 22.5 0.03 0.03 0.03 85 1013.9
20260906165852 22 12 14.5 19.3 0.03 0.03 0.03 86 1013.9
20260906165327 22 11 9.7 24.1 0.03 0.03 0.03 87 1014.4
20260906164826 22 5 17.7 24.1 0.03 0.03 0.03 87 1014.4
20260906164323 22 9 16.1 19.3 0.03 0.03 0.03 87 1014.4
20260906163821 21 259 8.0 16.1 0.03 0.03 0.03 87 1014.0
20260906163358 21 339 12.9 17.7 0.03 0.03 0.03 87 1014.0
20260906162834 21 272 8.0 20.9 0.03 0.03 0.03 86 1014.0
20260906162330 21 246 16.1 20.9 0.00 0.00 0.00 85 1014.3
20260906161829 21 315 9.7 17.7 0.00 0.00 0.00 84 1014.3
20260906161325 21 290 12.9 17.7 0.00 0.00 0.00 84 1014.3
20260906160825 21 263 8.0 22.5 0.00 0.00 0.00 84 1014.4
20260906160322 21 294 12.9 27.4 0.00 0.00 0.00 85 1014.4
20260906155904 21 277 19.3 35.4 0.00 0.00 0.00 84 1014.4
20260906155333 21 262 19.3 38.6 0.00 0.00 0.00 84 1013.7
20260906154830 22 259 29.0 38.6 0.00 0.00 0.00 81 1013.7
20260906154328 23 272 0.0 0.0 0.00 0.00 0.00 78 1013.7
20260906153824 26 259 0.0 0.0 0.00 0.00 0.00 74 1012.7
20260906153324 26 219 0.0 0.0 0.00 0.00 0.00 73 1012.7
20260906152822 26 196 0.0 0.0 0.00 0.00 0.00 73 1012.7
20260906152321 26 205 0.0 0.0 0.00 0.00 0.00 74 1012.8
20260906151818 26 198 0.0 0.0 0.00 0.00 0.00 75 1012.8
20260906151335 26 180 0.0 0.0 0.00 0.00 0.00 76 1012.8
20260906150832 25 169 0.0 0.0 0.00 0.00 0.00 76 1012.7
20260906150349 25 170 0.0 0.0 0.00 0.00 0.00 77 1012.7
20260906145827 25 173 0.0 0.0 0.00 0.00 0.00 79 1012.7
20260906145323 24 148 0.0 0.0 0.00 0.00 0.00 82 1013.1
20260906144820 23 126 0.0 0.0 0.00 0.00 0.00 87 1013.1
20260906144337 22 123 0.0 0.0 0.00 0.00 0.00 89 1013.1
20260906143833 22 123 0.0 0.0 0.00 0.00 0.00 90 1013.3
20260906143330 22 105 0.0 0.0 0.00 0.00 0.00 91 1013.3
20260906142828 22 69 0.0 0.0 0.00 0.00 0.00 92 1013.3
20260906142324 21 69 0.0 0.0 0.00 0.00 0.00 93 1013.4
20260906141821 21 53 0.0 0.0 0.00 0.00 0.00 94 1013.4
20260906141318 21 55 0.0 0.0 0.00 0.00 0.00 95 1013.4
20260906140815 20 55 0.0 0.0 0.00 0.00 0.00 95 1013.5
20260906140314 20 162 0.0 0.0 0.00 0.00 0.00 95 1013.5
20260906135836 20 162 0.0 4.8 0.00 0.00 0.00 95 1013.5
20260906135352 20 286 1.6 8.0 0.00 0.00 0.00 95 1013.6
20260906134827 19 286 1.6 11.3 0.00 0.00 0.00 95 1013.6
20260906134343 18 269 8.0 11.3 0.00 0.00 0.00 94 1013.6
20260906133833 18 209 4.8 8.0 0.00 0.00 0.00 94 1013.8
20260906133350 18 209 3.2 8.0 0.00 0.00 0.00 95 1013.8
20260906132826 18 209 6.4 8.0 0.00 0.00 0.00 94 1013.8
20260906132321 18 209 6.4 9.7 0.00 0.00 0.00 94 1013.6
20260906131901 18 201 6.4 9.7 0.00 0.00 0.00 94 1013.6
20260906131333 18 160 4.8 6.4 0.00 0.00 0.00 95 1013.6
20260906130851 18 161 3.2 6.4 0.00 0.00 0.00 95 1013.4
20260906130327 18 126 4.8 6.4 0.00 0.00 0.00 95 1013.4
20260906125823 18 355 0.0 3.2 0.00 0.00 0.00 94 1013.4
20260906125322 18 355 0.0 3.2 0.00 0.00 0.00 95 1013.0
20260906124819 18 355 0.0 3.2 0.00 0.00 0.00 95 1013.0
20260906124336 18 355 0.0 1.6 0.00 0.00 0.00 94 1013.0
20260906123832 17 355 0.0 1.6 0.00 0.00 0.00 94 1012.9
20260906123329 17 355 0.0 1.6 0.00 0.00 0.00 94 1012.9
20260906122845 18 355 0.0 3.2 0.00 0.00 0.00 94 1012.9
20260906122320 17 355 1.6 6.4 0.00 0.00 0.00 94 1013.0
20260906121835 17 355 3.2 6.4 0.00 0.00 0.00 94 1013.0
20260906121332 17 355 1.6 6.4 0.00 0.00 0.00 94 1013.0
20260906120829 17 355 3.2 6.4 0.00 0.00 0.00 94 1013.3
20260906120329 17 355 1.6 6.4 0.00 0.00 0.00 94 1013.3
20260906115825 17 355 4.8 6.4 0.00 0.00 0.00 94 1013.3
20260906115321 17 136 0.0 6.4 0.00 0.00 0.00 94 1013.4
20260906114818 17 136 0.0 8.0 0.00 0.00 0.00 94 1013.4
20260906114336 17 136 4.8 8.0 0.00 0.00 0.00 93 1013.4
20260906113834 18 138 4.8 6.4 0.00 0.00 0.00 94 1012.9
20260906113332 18 360 1.6 4.8 0.00 0.00 0.00 94 1012.9
20260906112832 18 360 1.6 4.8 0.00 0.00 0.00 94 1012.9
20260906112329 18 360 1.6 8.0 0.00 0.00 0.00 93 1012.9
20260906111828 18 360 3.2 9.7 0.00 0.00 0.00 94 1012.9
20260906111326 18 360 8.0 9.7 0.00 0.00 0.00 94 1012.9
20260906110828 18 5 4.8 8.0 0.00 0.00 0.00 93 1013.0
20260906110325 18 63 3.2 8.0 0.00 0.00 0.00 94 1013.0
20260906105824 18 37 3.2 9.7 0.00 0.00 0.00 93 1013.0
20260906105326 17 5 4.8 16.1 0.00 0.00 0.00 93 1012.9
20260906104824 18 348 11.3 16.1 0.00 0.00 0.00 94 1012.9
20260906104322 17 355 9.7 11.3 0.00 0.00 0.00 93 1012.9
20260906103840 17 15 9.7 9.7 0.00 0.00 0.00 93 1013.0
20260906103317 17 15 8.0 9.7 0.00 0.00 0.00 93 1013.0
20260906102832 17 15 4.8 9.7 0.00 0.00 0.00 93 1013.0
20260906102328 17 15 4.8 9.7 0.00 0.00 0.00 93 1012.9
20260906101828 18 15 6.4 8.0 0.00 0.00 0.00 92 1012.9
20260906101328 18 355 6.4 8.0 0.00 0.00 0.00 93 1012.9
20260906100826 18 22 3.2 4.8 0.00 0.00 0.00 92 1012.8
20260906100322 18 22 1.6 6.4 0.00 0.00 0.00 92 1012.8
20260906095818 18 22 1.6 8.0 0.00 0.00 0.00 92 1012.8
20260906095314 18 22 4.8 6.4 0.00 0.00 0.00 93 1012.8
20260906094834 18 22 3.2 4.8 0.00 0.00 0.00 92 1012.8
20260906094331 18 22 1.6 8.0 0.00 0.00 0.00 92 1012.8
20260906093848 18 22 4.8 8.0 0.00 0.00 0.00 92 1012.8
20260906093347 18 22 4.8 9.7 0.00 0.00 0.00 92 1012.8
20260906092825 18 22 4.8 9.7 0.00 0.00 0.00 92 1012.8
20260906092321 18 22 4.8 11.3 0.00 0.00 0.00 92 1012.8
20260906091838 18 22 8.0 9.7 0.00 0.00 0.00 92 1012.8
20260906091332 18 30 4.8 9.7 0.00 0.00 0.00 92 1012.8
20260906090829 18 34 4.8 8.0 0.00 0.00 0.00 91 1013.1
20260906090326 18 34 6.4 8.0 0.00 0.00 0.00 91 1013.1
20260906085826 18 10 3.2 8.0 0.00 0.00 0.00 91 1013.1
20260906085327 18 46 4.8 8.0 0.00 0.00 0.00 91 1012.9
20260906084824 18 65 3.2 9.7 0.00 0.00 0.00 91 1012.9
20260906084344 18 40 4.8 9.7 0.00 0.00 0.00 91 1012.9
20260906083842 18 55 4.8 6.4 0.00 0.00 0.00 91 1012.9
20260906083332 18 55 3.2 8.0 0.00 0.00 0.00 91 1012.7
20260906082832 18 55 1.6 8.0 0.00 0.00 0.00 91 1012.7
20260906082348 18 50 4.8 8.0 0.00 0.00 0.00 91 1012.5
20260906081825 18 38 1.6 9.7 0.00 0.00 0.00 91 1012.5
20260906081323 18 38 4.8 9.7 0.00 0.00 0.00 91 1012.5
20260906080823 18 19 8.0 9.7 0.00 0.00 0.00 90 1012.4
20260906080343 19 5 8.0 9.7 0.00 0.00 0.00 90 1012.4
20260906075821 19 17 3.2 14.5 0.00 0.00 0.00 90 1012.4
20260906075342 19 28 6.4 16.1 0.00 0.00 0.00 91 1012.7
20260906074818 19 35 9.7 16.1 0.00 0.00 0.00 91 1012.7
20260906074355 18 33 6.4 8.0 0.00 0.00 0.00 90 1012.7
20260906073831 18 20 3.2 8.0 0.00 0.00 0.00 90 1012.7
20260906073328 18 20 4.8 8.0 0.00 0.00 0.00 90 1012.7
20260906072825 18 5 3.2 11.3 0.00 0.00 0.00 89 1012.7
20260906072321 19 5 6.4 11.3 0.00 0.00 0.00 89 1012.8
20260906071837 19 17 6.4 8.0 0.00 0.00 0.00 89 1012.8
20260906071354 19 28 8.0 8.0 0.00 0.00 0.00 88 1012.8
20260906070829 19 40 3.2 6.4 0.00 0.00 0.00 88 1012.7
20260906070325 19 36 4.8 8.0 0.00 0.00 0.00 88 1012.7
20260906065822 19 26 4.8 8.0 0.00 0.00 0.00 88 1012.7
20260906065319 20 37 3.2 6.4 0.00 0.00 0.00 88 1012.7
20260906064903 20 58 3.2 6.4 0.00 0.00 0.00 87 1012.7
20260906064333 20 58 3.2 6.4 0.00 0.00 0.00 87 1012.7
20260906063849 20 58 4.8 9.7 0.00 0.00 0.00 87 1012.9
20260906063330 20 50 6.4 9.7 0.00 0.00 0.00 87 1012.9
20260906062827 20 51 4.8 6.4 0.00 0.00 0.00 86 1012.9
20260906062322 20 51 4.8 6.4 0.00 0.00 0.00 86 1013.1
20260906061819 20 29 3.2 9.7 0.00 0.00 0.00 86 1013.1
20260906061356 20 28 4.8 9.7 0.00 0.00 0.00 86 1013.1
20260906060852 20 38 8.0 19.3 0.00 0.00 0.00 86 1012.7
20260906060328 20 42 11.3 19.3 0.00 0.00 0.00 86 1012.7
20260906055827 20 5 11.3 16.1 0.00 0.00 0.00 85 1012.7
20260906055324 20 5 11.3 14.5 0.00 0.00 0.00 85 1012.7
20260906054841 20 355 9.7 14.5 0.00 0.00 0.00 85 1012.7
20260906054320 20 355 8.0 11.3 0.00 0.00 0.00 84 1012.7
20260906053819 20 9 8.0 9.7 0.00 0.00 0.00 83 1012.8
20260906053316 20 9 3.2 8.0 0.00 0.00 0.00 81 1012.8
20260906052833 20 9 1.6 8.0 0.00 0.00 0.00 81 1012.8
20260906052329 20 9 3.2 8.0 0.00 0.00 0.00 80 1012.8
20260906051825 20 355 4.8 8.0 0.00 0.00 0.00 79 1012.8
20260906051322 20 12 4.8 8.0 0.00 0.00 0.00 79 1012.8
20260906050819 21 32 4.8 6.4 0.00 0.00 0.00 79 1012.7
20260906050356 21 32 3.2 4.8 0.00 0.00 0.00 78 1012.7
20260906045825 21 32 3.2 4.8 0.00 0.00 0.00 77 1012.7
20260906045322 21 32 3.2 4.8 0.00 0.00 0.00 77 1012.7
20260906044818 21 32 3.2 6.4 0.00 0.00 0.00 77 1012.7
20260906044356 21 32 3.2 6.4 0.00 0.00 0.00 77 1012.7
20260906043853 21 32 3.2 4.8 0.00 0.00 0.00 76 1012.8
20260906043329 21 32 1.6 4.8 0.00 0.00 0.00 76 1012.8
20260906042828 21 32 1.6 4.8 0.00 0.00 0.00 76 1012.8
20260906042324 21 32 3.2 4.8 0.00 0.00 0.00 76 1012.7
20260906041820 21 32 1.6 6.4 0.00 0.00 0.00 76 1012.7
20260906041337 21 32 1.6 9.7 0.00 0.00 0.00 76 1012.7
20260906040833 21 9 6.4 11.3 0.00 0.00 0.00 76 1012.7
20260906040330 21 11 8.0 11.3 0.00 0.00 0.00 75 1012.7
20260906035827 21 360 9.7 12.9 0.00 0.00 0.00 74 1012.7
20260906035324 21 360 8.0 12.9 0.00 0.00 0.00 73 1012.5
20260906034840 21 355 8.0 9.7 0.00 0.00 0.00 73 1012.5
20260906034357 22 34 4.8 8.0 0.00 0.00 0.00 72 1012.5
20260906033852 22 34 4.8 6.4 0.00 0.00 0.00 72 1012.1
20260906033328 22 34 1.6 3.2 0.00 0.00 0.00 72 1012.1
20260906032826 22 34 1.6 4.8 0.00 0.00 0.00 71 1012.1
20260906032322 22 34 0.0 6.4 0.00 0.00 0.00 71 1011.9
20260906031840 22 34 1.6 6.4 0.00 0.00 0.00 70 1011.9
20260906031336 22 34 1.6 4.8 0.00 0.00 0.00 71 1011.9
20260906030832 23 34 1.6 4.8 0.00 0.00 0.00 71 1011.8
20260906030329 23 34 1.6 4.8 0.00 0.00 0.00 71 1011.8
20260906025829 23 79 3.2 6.4 0.00 0.00 0.00 71 1011.8
20260906025329 23 79 3.2 6.4 0.00 0.00 0.00 71 1011.7
20260906024826 23 79 3.2 8.0 0.00 0.00 0.00 71 1011.7
20260906024327 23 79 3.2 8.0 0.00 0.00 0.00 71 1011.7
20260906023822 23 48 3.2 8.0 0.00 0.00 0.00 70 1011.3
20260906023319 23 54 4.8 8.0 0.00 0.00 0.00 70 1011.3
20260906022833 24 55 4.8 9.7 0.00 0.00 0.00 71 1011.3
20260906022349 24 78 6.4 9.7 0.00 0.00 0.00 71 1011.1
20260906021828 24 104 3.2 8.0 0.00 0.00 0.00 71 1011.1
20260906021325 25 76 4.8 8.0 0.00 0.00 0.00 70 1011.1
20260906020842 25 76 3.2 6.4 0.00 0.00 0.00 69 1011.1
20260906020335 25 76 3.2 11.3 0.00 0.00 0.00 67 1010.8
20260906015833 26 73 6.4 8.0 0.00 0.00 0.00 66 1010.8
20260906015350 26 79 4.8 6.4 0.00 0.00 0.00 65 1010.6
20260906014829 26 79 1.6 3.2 0.00 0.00 0.00 64 1010.6
20260906014327 27 79 0.0 0.0 0.00 0.00 0.00 63 1010.6
20260906013824 27 79 0.0 1.6 0.00 0.00 0.00 61 1010.4
20260906013322 27 79 0.0 1.6 0.00 0.00 0.00 61 1010.4
20260906012843 27 79 0.0 0.0 0.00 0.00 0.00 61 1010.4
20260906012335 27 79 0.0 0.0 0.00 0.00 0.00 60 1010.5
20260906011830 28 79 0.0 0.0 0.00 0.00 0.00 59 1010.5
20260906011328 28 79 0.0 0.0 0.00 0.00 0.00 58 1010.5
20260906010828 28 79 0.0 0.0 0.00 0.00 0.00 57 1010.3
20260906010324 29 79 0.0 0.0 0.00 0.00 0.00 56 1010.3
20260906005821 29 94 0.0 0.0 0.00 0.00 0.00 55 1010.3
20260906005336 30 102 0.0 0.0 0.00 0.00 0.00 55 1010.3
20260906004833 30 72 0.0 0.0 0.00 0.00 0.00 54 1010.3
20260906004330 30 94 0.0 0.0 0.00 0.00 0.00 54 1010.3
20260906003827 30 67 0.0 0.0 0.00 0.00 0.00 54 1010.3
20260906003345 30 75 0.0 0.0 0.00 0.00 0.00 54 1010.3
20260906002822 31 75 0.0 0.0 0.00 0.00 0.00 52 1010.3
20260906002401 31 104 0.0 0.0 0.00 0.00 0.00 51 1010.3
20260906001833 31 78 0.0 0.0 0.00 0.00 0.00 50 1010.3
20260906001333 32 75 0.0 0.0 0.00 0.00 0.00 49 1010.3
20260906000830 32 66 0.0 0.0 0.00 0.00 0.00 48 1010.0
20260906000344 32 104 0.0 0.0 0.00 0.00 0.00 46 1010.0
20260905235820 33 94 0.0 0.0 0.00 0.00 0.00 43 1010.0
20260905235317 33 93 0.0 0.0 0.00 0.00 0.00 42 1009.8
20260905234856 33 99 0.0 0.0 0.00 0.00 0.00 42 1009.8
20260905234334 33 62 0.0 0.0 0.00 0.00 0.00 41 1009.8
20260905233831 33 63 0.0 0.0 0.00 0.00 0.00 41 1009.7
20260905233329 33 64 0.0 0.0 0.00 0.00 0.00 41 1009.7
20260905232848 33 77 0.0 0.0 0.00 0.00 0.00 40 1009.7
20260905232328 33 65 0.0 0.0 0.00 0.00 0.00 40 1009.4
20260905231825 34 92 0.0 0.0 0.00 0.00 0.00 40 1009.4
20260905231325 35 96 0.0 0.0 0.00 0.00 0.00 39 1009.4
20260905230843 35 60 0.0 0.0 0.00 0.00 0.00 39 1009.4
20260905230335 35 96 0.0 0.0 0.00 0.00 0.00 39 1009.2
20260905225834 35 97 0.0 0.0 0.00 0.00 0.00 39 1009.2
20260905225330 35 70 0.0 0.0 0.00 0.00 0.00 39 1009.0
20260905224828 35 72 0.0 0.0 0.00 0.00 0.00 38 1009.0
20260905224326 35 88 0.0 0.0 0.00 0.00 0.00 38 1009.0
20260905223824 35 98 0.0 0.0 0.00 0.00 0.00 38 1008.7
20260905223344 36 73 0.0 0.0 0.00 0.00 0.00 37 1008.7
20260905222821 36 139 0.0 0.0 0.00 0.00 0.00 37 1008.7
20260905222321 36 151 0.0 0.0 0.00 0.00 0.00 37 1008.7
20260905221854 35 96 0.0 0.0 0.00 0.00 0.00 37 1008.7
20260905221331 35 130 0.0 0.0 0.00 0.00 0.00 38 1008.7
20260905220845 35 119 0.0 0.0 0.00 0.00 0.00 38 1009.2
20260905220337 35 126 0.0 0.0 0.00 0.00 0.00 38 1009.2
20260905215830 35 107 0.0 0.0 0.00 0.00 0.00 38 1009.2
20260905215328 35 69 0.0 0.0 0.00 0.00 0.00 38 1009.3
20260905214823 35 122 0.0 0.0 0.00 0.00 0.00 37 1009.3
20260905214320 35 82 0.0 0.0 0.00 0.00 0.00 38 1009.3
20260905213855 35 94 0.0 0.0 0.00 0.00 0.00 38 1009.5
20260905213330 35 75 0.0 0.0 0.00 0.00 0.00 38 1009.5
20260905212846 35 60 0.0 0.0 0.00 0.00 0.00 38 1009.5
20260905212353 35 120 0.0 0.0 0.00 0.00 0.00 38 1009.7
20260905211826 35 62 0.0 0.0 0.00 0.00 0.00 38 1009.7
20260905211323 35 101 0.0 0.0 0.00 0.00 0.00 39 1009.7